| time (UTC) | temp C | wind direction | speed KPH | gust KPH | rain 1hr cm | rain 24hr cm | rain mn cm | humidity % | barometer mb |
| 20260504110507 | 11 | 257 | 0.0 | 1.6 | 0.00 | 0.00 | 0.00 | 54 | 1018.3 |
| 20260504100507 | 11 | 246 | 0.0 | 3.2 | 0.00 | 0.00 | 0.00 | 55 | 1017.9 |
| 20260504081526 | 11 | 244 | 1.6 | 4.8 | 0.00 | 0.00 | 0.00 | 57 | 1017.7 |
| 20260504081007 | 11 | 301 | 0.0 | 4.8 | 0.00 | 0.00 | 0.00 | 58 | 1017.7 |
| 20260504080506 | 11 | 37 | 1.6 | 4.8 | 0.00 | 0.00 | 0.00 | 59 | 1017.7 |
| 20260504050508 | 11 | 339 | 1.6 | 8.0 | 0.00 | 0.00 | 0.00 | 56 | 1018.8 |
| 20260504050024 | 11 | 292 | 1.6 | 4.8 | 0.00 | 0.00 | 0.00 | 58 | 1018.8 |
| 20260504045507 | 11 | 240 | 0.0 | 6.4 | 0.00 | 0.00 | 0.00 | 58 | 1018.7 |
| 20260504045007 | 11 | 54 | 3.2 | 6.4 | 0.00 | 0.00 | 0.00 | 58 | 1018.7 |
| 20260504044529 | 11 | 49 | 0.0 | 4.8 | 0.00 | 0.00 | 0.00 | 59 | 1018.7 |
| 20260504044011 | 10 | 236 | 0.0 | 1.6 | 0.00 | 0.00 | 0.00 | 60 | 1018.6 |
| 20260504043513 | 10 | 105 | 0.0 | 1.6 | 0.00 | 0.00 | 0.00 | 61 | 1018.6 |
| 20260504043028 | 10 | 240 | 0.0 | 1.6 | 0.00 | 0.00 | 0.00 | 63 | 1018.6 |
| 20260504042510 | 10 | 123 | 0.0 | 1.6 | 0.00 | 0.00 | 0.00 | 62 | 1018.7 |
| 20260504042008 | 10 | 250 | 0.0 | 3.2 | 0.00 | 0.00 | 0.00 | 63 | 1018.7 |
| 20260504041514 | 10 | 243 | 0.0 | 3.2 | 0.00 | 0.00 | 0.00 | 63 | 1018.7 |
| 20260504041008 | 10 | 243 | 0.0 | 1.6 | 0.00 | 0.00 | 0.00 | 62 | 1018.7 |
| 20260504040508 | 11 | 242 | 0.0 | 1.6 | 0.00 | 0.00 | 0.00 | 62 | 1018.7 |
| 20260504040018 | 11 | 242 | 0.0 | 3.2 | 0.00 | 0.00 | 0.00 | 61 | 1018.6 |
| 20260504035509 | 11 | 242 | 0.0 | 3.2 | 0.00 | 0.00 | 0.00 | 60 | 1018.6 |
| 20260504035007 | 11 | 98 | 0.0 | 3.2 | 0.00 | 0.00 | 0.00 | 60 | 1018.6 |
| 20260504034524 | 11 | 245 | 0.0 | 1.6 | 0.00 | 0.00 | 0.00 | 59 | 1018.6 |
| 20260504034010 | 11 | 245 | 0.0 | 3.2 | 0.00 | 0.00 | 0.00 | 60 | 1018.6 |
| 20260504033511 | 11 | 247 | 1.6 | 3.2 | 0.00 | 0.00 | 0.00 | 60 | 1018.7 |
| 20260504033029 | 11 | 241 | 0.0 | 3.2 | 0.00 | 0.00 | 0.00 | 59 | 1018.6 |
| 20260504032507 | 11 | 240 | 0.0 | 1.6 | 0.00 | 0.00 | 0.00 | 57 | 1018.6 |
| 20260504032011 | 12 | 231 | 0.0 | 3.2 | 0.00 | 0.00 | 0.00 | 58 | 1018.6 |
| 20260504031528 | 11 | 229 | 0.0 | 3.2 | 0.00 | 0.00 | 0.00 | 57 | 1018.7 |
| 20260504031010 | 11 | 246 | 1.6 | 3.2 | 0.00 | 0.00 | 0.00 | 58 | 1018.7 |
| 20260504030508 | 11 | 244 | 0.0 | 1.6 | 0.00 | 0.00 | 0.00 | 57 | 1018.8 |
| 20260504030015 | 11 | 242 | 0.0 | 1.6 | 0.00 | 0.00 | 0.00 | 56 | 1018.8 |
| 20260504025507 | 12 | 242 | 0.0 | 3.2 | 0.00 | 0.00 | 0.00 | 56 | 1018.7 |
| 20260504025007 | 12 | 237 | 1.6 | 3.2 | 0.00 | 0.00 | 0.00 | 57 | 1018.7 |
| 20260504024528 | 12 | 246 | 1.6 | 3.2 | 0.00 | 0.00 | 0.00 | 56 | 1018.7 |
| 20260504024007 | 12 | 245 | 1.6 | 3.2 | 0.00 | 0.00 | 0.00 | 55 | 1018.7 |
| 20260504023510 | 12 | 244 | 1.6 | 3.2 | 0.00 | 0.00 | 0.00 | 56 | 1018.7 |
| 20260504023026 | 12 | 246 | 0.0 | 1.6 | 0.00 | 0.00 | 0.00 | 54 | 1018.7 |
| 20260504022511 | 12 | 246 | 1.6 | 1.6 | 0.00 | 0.00 | 0.00 | 55 | 1018.6 |
| 20260504022010 | 12 | 248 | 0.0 | 3.2 | 0.00 | 0.00 | 0.00 | 54 | 1018.5 |
| 20260504021528 | 12 | 248 | 1.6 | 3.2 | 0.00 | 0.00 | 0.00 | 53 | 1018.5 |
| 20260504021010 | 12 | 245 | 1.6 | 3.2 | 0.00 | 0.00 | 0.00 | 54 | 1018.5 |
| 20260504020509 | 12 | 244 | 1.6 | 3.2 | 0.00 | 0.00 | 0.00 | 53 | 1018.5 |
| 20260504020028 | 12 | 245 | 1.6 | 3.2 | 0.00 | 0.00 | 0.00 | 52 | 1018.5 |
| 20260504015509 | 12 | 238 | 1.6 | 3.2 | 0.00 | 0.00 | 0.00 | 52 | 1018.4 |
| 20260504015013 | 12 | 249 | 1.6 | 1.6 | 0.00 | 0.00 | 0.00 | 52 | 1018.4 |
| 20260504014518 | 12 | 247 | 1.6 | 1.6 | 0.00 | 0.00 | 0.00 | 52 | 1018.4 |
| 20260504014008 | 13 | 250 | 1.6 | 1.6 | 0.00 | 0.00 | 0.00 | 50 | 1018.3 |
| 20260504013509 | 13 | 278 | 0.0 | 1.6 | 0.00 | 0.00 | 0.00 | 50 | 1018.3 |
| 20260504013033 | 12 | 246 | 1.6 | 3.2 | 0.00 | 0.00 | 0.00 | 51 | 1018.3 |
| 20260504012508 | 12 | 246 | 1.6 | 3.2 | 0.00 | 0.00 | 0.00 | 51 | 1018.2 |
| 20260504012015 | 12 | 245 | 1.6 | 3.2 | 0.00 | 0.00 | 0.00 | 52 | 1018.1 |
| 20260504011526 | 12 | 243 | 1.6 | 3.2 | 0.00 | 0.00 | 0.00 | 52 | 1018.1 |
| 20260504011013 | 12 | 248 | 1.6 | 1.6 | 0.00 | 0.00 | 0.00 | 51 | 1018.1 |
| 20260504010508 | 13 | 248 | 1.6 | 1.6 | 0.00 | 0.00 | 0.00 | 52 | 1018.0 |
| 20260504010027 | 13 | 245 | 1.6 | 1.6 | 0.00 | 0.00 | 0.00 | 50 | 1018.0 |
| 20260504005510 | 13 | 245 | 0.0 | 1.6 | 0.00 | 0.00 | 0.00 | 51 | 1018.0 |
| 20260504005010 | 13 | 245 | 0.0 | 3.2 | 0.00 | 0.00 | 0.00 | 49 | 1017.9 |
| 20260504004530 | 13 | 300 | 1.6 | 3.2 | 0.00 | 0.00 | 0.00 | 49 | 1017.9 |
| 20260504004009 | 13 | 245 | 0.0 | 3.2 | 0.00 | 0.00 | 0.00 | 52 | 1017.9 |
| 20260504003510 | 13 | 240 | 1.6 | 4.8 | 0.00 | 0.00 | 0.00 | 49 | 1017.9 |
| 20260504003034 | 13 | 245 | 1.6 | 4.8 | 0.00 | 0.00 | 0.00 | 52 | 1017.8 |
| 20260504002508 | 13 | 259 | 1.6 | 4.8 | 0.00 | 0.00 | 0.00 | 49 | 1017.8 |
| 20260504002007 | 13 | 308 | 1.6 | 4.8 | 0.00 | 0.00 | 0.00 | 50 | 1017.8 |
| 20260504001523 | 13 | 277 | 0.0 | 4.8 | 0.00 | 0.00 | 0.00 | 50 | 1017.8 |
| 20260504001009 | 13 | 237 | 1.6 | 3.2 | 0.00 | 0.00 | 0.00 | 51 | 1017.8 |
| 20260504000507 | 14 | 244 | 0.0 | 8.0 | 0.00 | 0.00 | 0.00 | 50 | 1017.9 |
| 20260504000028 | 13 | 302 | 3.2 | 8.0 | 0.00 | 0.00 | 0.00 | 51 | 1017.9 |
| 20260503235507 | 13 | 333 | 1.6 | 4.8 | 0.00 | 0.00 | 0.00 | 51 | 1017.8 |
| 20260503235007 | 13 | 263 | 1.6 | 4.8 | 0.00 | 0.00 | 0.00 | 51 | 1017.7 |
| 20260503234529 | 14 | 51 | 1.6 | 4.8 | 0.00 | 0.00 | 0.00 | 50 | 1017.7 |
| 20260503234011 | 14 | 177 | 0.0 | 6.4 | 0.00 | 0.00 | 0.00 | 51 | 1017.8 |
| 20260503233509 | 14 | 250 | 1.6 | 6.4 | 0.00 | 0.00 | 0.00 | 50 | 1017.8 |
| 20260503233036 | 14 | 65 | 0.0 | 6.4 | 0.00 | 0.00 | 0.00 | 50 | 1017.7 |
| 20260503232506 | 15 | 247 | 1.6 | 6.4 | 0.00 | 0.00 | 0.00 | 47 | 1017.8 |
| 20260503232008 | 15 | 49 | 0.0 | 6.4 | 0.00 | 0.00 | 0.00 | 47 | 1017.8 |
| 20260503231521 | 15 | 279 | 1.6 | 6.4 | 0.00 | 0.00 | 0.00 | 47 | 1017.8 |
| 20260503231007 | 15 | 53 | 0.0 | 8.0 | 0.00 | 0.00 | 0.00 | 47 | 1017.8 |
| 20260503230509 | 15 | 91 | 1.6 | 9.7 | 0.00 | 0.00 | 0.00 | 44 | 1017.8 |
| 20260503230027 | 15 | 327 | 0.0 | 9.7 | 0.00 | 0.00 | 0.00 | 44 | 1017.8 |
| 20260503225506 | 15 | 60 | 3.2 | 9.7 | 0.00 | 0.00 | 0.00 | 44 | 1017.9 |
| 20260503225009 | 15 | 239 | 1.6 | 9.7 | 0.00 | 0.00 | 0.00 | 46 | 1017.9 |
| 20260503224529 | 15 | 276 | 4.8 | 9.7 | 0.00 | 0.00 | 0.00 | 44 | 1017.9 |
| 20260503224015 | 15 | 252 | 1.6 | 9.7 | 0.00 | 0.00 | 0.00 | 44 | 1017.9 |
| 20260503223510 | 15 | 146 | 3.2 | 9.7 | 0.00 | 0.00 | 0.00 | 45 | 1017.9 |
| 20260503223030 | 15 | 51 | 1.6 | 8.0 | 0.00 | 0.00 | 0.00 | 42 | 1017.9 |
| 20260503222507 | 15 | 120 | 3.2 | 6.4 | 0.00 | 0.00 | 0.00 | 40 | 1017.9 |
| 20260503222008 | 15 | 11 | 3.2 | 9.7 | 0.00 | 0.00 | 0.00 | 39 | 1017.9 |
| 20260503221516 | 15 | 252 | 3.2 | 9.7 | 0.00 | 0.00 | 0.00 | 38 | 1017.9 |
| 20260503221008 | 16 | 18 | 1.6 | 6.4 | 0.00 | 0.00 | 0.00 | 42 | 1017.8 |
| 20260503220508 | 16 | 308 | 1.6 | 6.4 | 0.00 | 0.00 | 0.00 | 41 | 1017.8 |
| 20260503220024 | 16 | 322 | 1.6 | 3.2 | 0.00 | 0.00 | 0.00 | 41 | 1017.8 |
| 20260503215510 | 16 | 243 | 0.0 | 6.4 | 0.00 | 0.00 | 0.00 | 42 | 1017.7 |
| 20260503215010 | 16 | 213 | 3.2 | 6.4 | 0.00 | 0.00 | 0.00 | 44 | 1017.7 |
| 20260503214525 | 16 | 252 | 0.0 | 4.8 | 0.00 | 0.00 | 0.00 | 42 | 1017.8 |
| 20260503214007 | 16 | 47 | 0.0 | 6.4 | 0.00 | 0.00 | 0.00 | 39 | 1017.9 |
| 20260503213507 | 16 | 110 | 1.6 | 8.0 | 0.00 | 0.00 | 0.00 | 39 | 1017.9 |
| 20260503213027 | 16 | 238 | 3.2 | 8.0 | 0.00 | 0.00 | 0.00 | 41 | 1018.0 |
| 20260503212513 | 16 | 278 | 1.6 | 8.0 | 0.00 | 0.00 | 0.00 | 41 | 1018.0 |
| 20260503212009 | 16 | 43 | 4.8 | 11.3 | 0.00 | 0.00 | 0.00 | 42 | 1018.0 |
| 20260503211530 | 16 | 110 | 1.6 | 11.3 | 0.00 | 0.00 | 0.00 | 41 | 1018.1 |
| 20260503211007 | 16 | 49 | 3.2 | 4.8 | 0.00 | 0.00 | 0.00 | 42 | 1018.1 |
| 20260503210508 | 16 | 98 | 0.0 | 11.3 | 0.00 | 0.00 | 0.00 | 42 | 1018.0 |
| 20260503210017 | 16 | 248 | 1.6 | 11.3 | 0.00 | 0.00 | 0.00 | 42 | 1018.1 |
| 20260503205506 | 16 | 48 | 0.0 | 11.3 | 0.00 | 0.00 | 0.00 | 41 | 1018.2 |
| 20260503205008 | 16 | 323 | 4.8 | 11.3 | 0.00 | 0.00 | 0.00 | 39 | 1018.2 |
| 20260503204524 | 16 | 117 | 1.6 | 6.4 | 0.00 | 0.00 | 0.00 | 39 | 1018.3 |
| 20260503204007 | 16 | 57 | 1.6 | 6.4 | 0.00 | 0.00 | 0.00 | 39 | 1018.3 |
| 20260503203510 | 16 | 114 | 1.6 | 11.3 | 0.00 | 0.00 | 0.00 | 37 | 1018.4 |
| 20260503203031 | 16 | 360 | 4.8 | 11.3 | 0.00 | 0.00 | 0.00 | 37 | 1018.5 |
| 20260503202511 | 16 | 142 | 1.6 | 9.7 | 0.00 | 0.00 | 0.00 | 37 | 1018.5 |
| 20260503202007 | 16 | 86 | 3.2 | 6.4 | 0.00 | 0.00 | 0.00 | 38 | 1018.7 |
| 20260503201514 | 16 | 354 | 3.2 | 8.0 | 0.00 | 0.00 | 0.00 | 37 | 1018.7 |
| 20260503201004 | 16 | 243 | 3.2 | 11.3 | 0.00 | 0.00 | 0.00 | 38 | 1018.7 |
| 20260503200508 | 15 | 356 | 3.2 | 11.3 | 0.00 | 0.00 | 0.00 | 36 | 1018.8 |
| 20260503200016 | 16 | 49 | 3.2 | 12.9 | 0.00 | 0.00 | 0.00 | 39 | 1018.8 |
| 20260503195510 | 16 | 37 | 4.8 | 12.9 | 0.00 | 0.00 | 0.00 | 37 | 1019.0 |
| 20260503195009 | 16 | 253 | 1.6 | 12.9 | 0.00 | 0.00 | 0.00 | 40 | 1019.0 |
| 20260503194519 | 16 | 8 | 1.6 | 12.9 | 0.00 | 0.00 | 0.00 | 43 | 1019.3 |
| 20260503194004 | 16 | 35 | 1.6 | 12.9 | 0.00 | 0.00 | 0.00 | 44 | 1019.2 |
| 20260503193507 | 16 | 261 | 3.2 | 12.9 | 0.00 | 0.00 | 0.00 | 42 | 1019.4 |
| 20260503193004 | 16 | 127 | 3.2 | 8.0 | 0.00 | 0.00 | 0.00 | 43 | 1019.3 |
| 20260503192504 | 16 | 23 | 1.6 | 8.0 | 0.00 | 0.00 | 0.00 | 43 | 1019.4 |
| 20260503192004 | 16 | 132 | 1.6 | 12.9 | 0.00 | 0.00 | 0.00 | 42 | 1019.5 |
| 20260503191508 | 16 | 351 | 3.2 | 12.9 | 0.00 | 0.00 | 0.00 | 42 | 1019.6 |
| 20260503191004 | 16 | 32 | 1.6 | 11.3 | 0.00 | 0.00 | 0.00 | 43 | 1019.6 |
| 20260503190504 | 16 | 54 | 0.0 | 11.3 | 0.00 | 0.00 | 0.00 | 43 | 1019.7 |
| 20260503190010 | 16 | 130 | 4.8 | 9.7 | 0.00 | 0.00 | 0.00 | 41 | 1019.7 |
| 20260503185505 | 16 | 60 | 1.6 | 14.5 | 0.00 | 0.00 | 0.00 | 44 | 1019.8 |
| 20260503185007 | 17 | 60 | 3.2 | 14.5 | 0.00 | 0.00 | 0.00 | 44 | 1019.8 |
| 20260503184519 | 17 | 293 | 3.2 | 8.0 | 0.00 | 0.00 | 0.00 | 41 | 1019.9 |
| 20260503184007 | 17 | 47 | 1.6 | 4.8 | 0.00 | 0.00 | 0.00 | 43 | 1019.8 |
| 20260503183509 | 17 | 80 | 1.6 | 6.4 | 0.00 | 0.00 | 0.00 | 47 | 1019.8 |
| 20260503183024 | 17 | 42 | 3.2 | 8.0 | 0.00 | 0.00 | 0.00 | 43 | 1019.8 |
| 20260503182507 | 17 | 101 | 3.2 | 8.0 | 0.00 | 0.00 | 0.00 | 42 | 1019.9 |
| 20260503182005 | 17 | 117 | 3.2 | 8.0 | 0.00 | 0.00 | 0.00 | 44 | 1019.9 |
| 20260503181505 | 17 | 66 | 1.6 | 6.4 | 0.00 | 0.00 | 0.00 | 48 | 1019.9 |
| 20260503181005 | 16 | 38 | 0.0 | 4.8 | 0.00 | 0.00 | 0.00 | 45 | 1020.0 |
| 20260503180504 | 16 | 43 | 1.6 | 4.8 | 0.00 | 0.00 | 0.00 | 45 | 1020.0 |
| 20260503180009 | 16 | 145 | 1.6 | 9.7 | 0.00 | 0.00 | 0.00 | 43 | 1020.1 |
| 20260503175504 | 16 | 301 | 4.8 | 9.7 | 0.00 | 0.00 | 0.00 | 41 | 1020.1 |
| 20260503175004 | 16 | 68 | 1.6 | 11.3 | 0.00 | 0.00 | 0.00 | 44 | 1020.1 |
| 20260503174519 | 16 | 36 | 4.8 | 11.3 | 0.00 | 0.00 | 0.00 | 41 | 1020.0 |
| 20260503174004 | 16 | 32 | 1.6 | 9.7 | 0.00 | 0.00 | 0.00 | 43 | 1020.1 |
| 20260503173505 | 16 | 100 | 3.2 | 11.3 | 0.00 | 0.00 | 0.00 | 40 | 1020.2 |
| 20260503173019 | 16 | 330 | 4.8 | 11.3 | 0.00 | 0.00 | 0.00 | 40 | 1020.2 |
| 20260503172512 | 16 | 33 | 6.4 | 9.7 | 0.00 | 0.00 | 0.00 | 40 | 1020.2 |
| 20260503172010 | 16 | 102 | 1.6 | 6.4 | 0.00 | 0.00 | 0.00 | 43 | 1020.3 |
| 20260503171521 | 16 | 15 | 1.6 | 9.7 | 0.00 | 0.00 | 0.00 | 42 | 1020.4 |
| 20260503171009 | 16 | 76 | 4.8 | 9.7 | 0.00 | 0.00 | 0.00 | 41 | 1020.5 |
| 20260503170505 | 17 | 53 | 1.6 | 6.4 | 0.00 | 0.00 | 0.00 | 46 | 1020.5 |
| 20260503151008 | 15 | 124 | 1.6 | 3.2 | 0.00 | 0.00 | 0.00 | 49 | 1021.0 |
| 20260503150506 | 15 | 60 | 0.0 | 4.8 | 0.00 | 0.00 | 0.00 | 48 | 1021.1 |
| 20260503131007 | 11 | 130 | 6.4 | 9.7 | 0.00 | 0.00 | 0.00 | 57 | 1020.4 |
| 20260503130506 | 11 | 111 | 4.8 | 8.0 | 0.00 | 0.00 | 0.00 | 59 | 1020.4 |